OpenBCM V2.0.3 (Linux)

Packet Radio Mailbox

IZ3LSV

[San Dona' di P. JN]

 Login: GUEST





  
I0OJJ  > AMSAT    18.07.26 09:48l 323 Lines 15209 Bytes #999 (0) @ WW
BID : A5QZX_I0OJJ
Read: GUEST
Subj: 2Line Orbital Elements
Path: IZ3LSV<ED1ZAC<LU4ECL<VK2RZ<VE3CGR<KQ6UP<I0OJJ
Sent: 260715/0029z @:I0OJJ.ITA.EU [Rome] $:A5QZX_I0OJJ

>From i0ojj@i0ojj.ampr.org Wed Jul 15 02:29:13 2026
Received: from i0ojj.ampr.org by i0ojj.ampr.org (JNOS2.0q.1) with SMTP
	id AA17064429 ; Wed, 15 Jul 2026 02:29:13 +0200
Received: by i0ojj.ampr.org with SMTP
	id AA17064426 ; Wed, 15 Jul 2026 02:27:02 +0200
Message-Id: <17064427@i0ojj.ampr.org>
>From: i0ojj@i0ojj.ampr.org

SB KEPS @ AMSAT  $ORB26196.1
2Line Orbital Elements 26196.AMSAT

QST de W1STR

AMSAT Orbital Elements for Amateur Satellites in TLE Format
>From Orbital Analysis Office
New England Sci-Tech STEM Education Center
Natick MA July 15, 2026
To all radio amateurs


These element sets describe the orbits of various satellites 
in use by the amateur radio community. For details see:
www.amsat.org/keplerian-elements-formats/

A daily update of element sets is available at:
www.amsat.org/tle/daily-bulletin.txt
or without bulletin text:
www.amsat.org/tle/dailytle.txt


AO-07
1 07530U 74089B   26195.60626992 -.00000032  00000-0  86767-4 0  9990
2 07530 101.9905 209.1386 0012661  79.4493  40.0300 12.53698560363951
UO-11
1 14781U 84021B   26195.80716264  .00000589  00000-0  65424-4 0  9990
2 14781  97.8076 161.0771 0009213  92.5056 267.7217 14.90848396261244
LO-19
1 20442U 90005G   26195.60099740  .00000042  00000-0  31820-4 0  9998
2 20442  98.8847 218.1611 0012525 122.9909 237.2480 14.34130652906320
AO-27
1 22825U 93061C   26195.75956436  .00000038  00000-0  31561-4 0  9997
2 22825  98.6869 263.1613 0008786  27.0664 333.0976 14.30948990710942
FO-29
1 24278U 96046B   26195.81415396  .00000011  00000-0  45827-4 0  9990
2 24278  98.5220  40.8992 0350380  24.9279 336.8338 13.53275637476907
GO-32
1 25397U 98043D   26195.52935320  .00000006  00000-0  22945-4 0  9994
2 25397  99.0085 188.9795 0002172 115.5342 244.6061 14.24433285455226
ISS
1 25544U 98067A   26195.86320345  .00002555  00000-0  54527-4 0  9998
2 25544  51.6306 163.1262 0006677 297.0398  62.9909 15.49008846576040
NO-44
1 26931U 01043C   26195.32908449  .00000011  00000-0  34933-4 0  9999
2 26931  67.0494 174.0696 0005928 266.5603  93.4821 14.31964812294335
SO-50
1 27607U 02058C   26195.80203815  .00000375  00000-0  62311-4 0  9999
2 27607  64.5518  43.5419 0074548 257.3375 101.9390 14.83097966268551
CO-55
1 27844U 03031E   26195.57423980  .00000140  00000-0  79585-4 0  9996
2 27844  98.6742 203.7891 0010828 104.2879 255.9503 14.24351310195573
RS-22
1 27939U 03042A   26195.85964874  .00000902  00000-0  14705-3 0  9994
2 27939  98.3468  21.0019 0011197 174.2713 297.4722 14.73515703219626
CO-65
1 32785U 08021C   26195.82332272  .00002941  00000-0  18661-3 0  9999
2 32785  97.8291 177.8241 0007039 300.9079  59.1457 15.09699061989362
CO-66
1 32791U 08021J   26195.54652954  .00010410  00000-0  32244-3 0  9990
2 32791  97.7520 194.7703 0002981 157.5049 202.6324 15.33652134991489
RS-30
1 32953U 08025A   26195.86339832 -.00000033  00000-0 -30503-3 0  9994
2 32953  82.5056 338.2226 0018594 249.7516 110.1565 12.43180542823133
SRMSAT
1 37841U 11058D   26195.29196898  .00000343  00000-0  42066-4 0  9995
2 37841  19.9711 255.4136 0011787 141.3057 265.6885 14.11580990761657
ZACUBE-1
1 39417U 13066B   26195.86804456  .00001239  00000-0  99204-4 0  9997
2 39417  97.8008 158.3415 0044011 156.2520 204.0748 15.01327872684881
Delfi-N3xt
1 39428U 13066N   26195.81662321  .00002854  00000-0  24969-3 0  9996
2 39428  97.8331 116.1052 0075733 114.0515 246.8654 14.95356901678758
GOMX-1
1 39430U 13066Q   26195.83077860  .00000789  00000-0  12511-3 0  9994
2 39430  97.6469  34.5491 0128297 349.3818  10.4684 14.69542594673977
LO-74
1 39440U 13066AA  26195.86030594  .00001977  00000-0  18584-3 0  9997
2 39440  97.8912 144.9614 0055738 296.4824  63.0685 14.93965331681120
AO-73
1 39444U 13066AE  26195.82872940  .00003435  00000-0  21317-3 0  9995
2 39444  97.8288 167.8602 0038005 108.8276 251.7080 15.09814970683831
DTUSAT-2
1 40030U 14033W   26195.64437938  .00003294  00000-0  17853-3 0  9990
2 40030  98.0873 195.1228 0009296 133.3266 226.8740 15.15347916656842
LILACSAT-2
1 40908U 15049K   26195.86934354  .00011713  00000-0  19362-3 0  9992
2 40908  97.4624 233.7755 0008399 142.3468 217.8373 15.52352030600041
Lapan A3
1 41603U 16040E   26195.86380791  .00001868  00000-0  60401-4 0  9998
2 41603  97.1504 191.1050 0008258 277.6802  82.3503 15.33276518559050
CAS-2T
1 41847U 16066G   26195.80491248  .00000542  00000-0  84315-4 0  9998
2 41847  98.3814 271.2251 0342254  45.9444 316.9396 14.44769868508781
TechnoSat
1 42829U 17042E   26195.37528415  .00001874  00000-0  13547-3 0  9990
2 42829  97.4314 352.0048 0017511   6.1550 353.9889 15.05108329490797
AO-91
1 43017U 17073E   26195.58998105  .00004198  00000-0  18450-3 0  9994
2 43017  97.4666  62.2466 0148235 233.5986 125.1498 15.13055354469539
S-Net D
1 43186U 18014G   26195.70752161  .00002523  00000-0  13144-3 0  9996
2 43186  97.5336 100.3276 0006264 287.1743  72.8804 15.16915277462933
S-Net B
1 43187U 18014H   26195.71951559  .00002461  00000-0  12839-3 0  9991
2 43187  97.5340 100.3268 0006858 280.6944  79.3517 15.16885110462935
S-Net A
1 43188U 18014J   26195.70624733  .00002488  00000-0  12958-3 0  9993
2 43188  97.5351 100.5279 0006741 281.8127  78.2349 15.16923371462932
S-Net C
1 43189U 18014K   26195.72353909  .00002400  00000-0  12529-3 0  9998
2 43189  97.5370 100.6239 0008125 272.3124  87.7179 15.16876096461487
Ten-Koh
1 43677U 18084G   26195.48611413  .00001770  00000-0  13626-3 0  9995
2 43677  98.0757  28.9976 0009902  32.4073 327.7758 15.03043848420264
PO-101
1 43678U 18084H   26195.84420620  .00001105  00000-0  92649-4 0  9999
2 43678  98.1214  33.2637 0012853  85.4966 274.7724 15.00562547420369
QO-100
1 43700U 18090A   26195.84234366  .00000135  00000-0  00000+0 0  9999
2 43700   0.0180  39.9084 0002192 119.2005 102.6091  1.00270700 27959
MinXSS-2
1 43758U 18099A   26195.76100696  .00024253  00000-0  45177-3 0  9995
2 43758  97.4528 272.8893 0008452 162.2091 197.9457 15.48799733418396
AO-95
1 43770U 18099N   26195.66582853  .00006291  00000-0  23813-3 0  9992
2 43770  97.4374 255.8190 0007215 242.1625 117.8883 15.27266884417416
SNUSat 2
1 43782U 18099AA  26195.68248637  .00004638  00000-0  20452-3 0  9995
2 43782  97.4045 248.6483 0010154 189.4530 170.6517 15.22235475417219
SnugLite
1 43784U 18099AC  26195.65775209  .00006490  00000-0  24209-3 0  9996
2 43784  97.3854 249.6753 0003584 161.1111 199.0262 15.27751297417515
ITASat 1
1 43786U 18099AE  26195.68501882  .00003815  00000-0  18333-3 0  9994
2 43786  97.4014 246.6512 0010830 252.4754 107.5298 15.19378278417085
EAGLET 1
1 43790U 18099AJ  26195.63073188  .00002201  00000-0  12777-3 0  9991
2 43790  97.4218 244.5733 0009609 246.3814 113.6408 15.13131172416487
ESEO
1 43792U 18099AL  26195.65251060  .00001417  00000-0  10576-3 0  9995
2 43792  97.3957 231.8633 0010900 235.8570 124.1624 15.04320705415932
JO-97
1 43803U 18099AX  26195.62172082  .00009262  00000-0  27927-3 0  9995
2 43803  97.4121 258.5644 0006852 159.8317 200.3198 15.34505872417839
Suomi 100
1 43804U 18099AY  26195.69774921  .00007199  00000-0  25771-3 0  9995
2 43804  97.4175 255.9976 0010464 173.9590 186.1778 15.29025652417621
ISAT
1 43879U 18111D   26195.79550064  .00080188  00000-0  64197-3 0  9997
2 43879  97.5857 133.2539 0007830 140.0601 220.1238 15.70780866415499
UWE-4
1 43880U 18111E   26195.77048968  .00021018  00000-0  40605-3 0  9997
2 43880  97.5848 125.4664 0006092 196.0954 164.0103 15.47799907415042
Sparrow
1 43881U 18111F   26195.82020426  .00185387  00000-0  78412-3 0  9990
2 43881  97.6086 139.4962 0008341 139.8454 220.3433 15.84849665415739
Prox-1
1 44339U 19036A   26195.56427031  .00006514  00000-0  61082-3 0  9999
2 44339  23.9954 291.2841 0005951   1.0168 359.0343 14.91240089377563
Taurus 1
1 44530U 19059C   26195.83619051  .00003932  00000-0  62950-3 0  9998
2 44530  98.6430   2.3879 0008012 216.5055 143.5605 14.72369819362715
TO-108
1 44881U 19093C   26195.84443059  .00000539  00000-0  66747-4 0  9998
2 44881  97.7529 267.4009 0013661   2.9007 357.2286 14.86561767355523
RS-44
1 44909U 19096E   26195.83749079 -.00000001  00000-0 -55241-4 0  9995
2 44909  82.5241 321.3319 0218536  79.8236 282.7434 12.79748926305881
SALSAT
1 46495U 20068K   26195.54877328  .00004163  00000-0  14541-3 0  9993
2 46495  97.8856 200.2874 0009148 195.2534 164.8431 15.30166467319545
CSS (TIANHE-1)
1 48274U 21035A   26195.83036008  .00000810  00000-0  14734-4 0  9999
2 48274  41.4689 154.0450 0002257 301.6080  58.4538 15.58084611297484
CUTE
1 49263U 21088D   26195.81064991  .02317248  24392-5  11013-2 0  9994
2 49263  97.3987 298.1083 0011345 285.4989  74.5047 16.21314162266973
TeikyoSat 4
1 49396U 21102B   26195.62965249  .00001150  00000-0  75287-4 0  9993
2 49396  97.3665 224.0464 0011670 190.4207 169.6783 15.09597377256869
Z-Sat
1 49399U 21102E   26195.81114611  .00000976  00000-0  50426-4 0  9999
2 49399  97.3315 230.2962 0017537 145.5428 214.6947 15.18459228257631
KOSEN 1
1 49402U 21102H   26195.66383617  .00004514  00000-0  17148-3 0  9996
2 49402  97.3172 237.2911 0015408 109.3204 250.9703 15.27209519258217
HO-113
1 50466U 21131B   26195.82203723  .00000296  00000-0  10495-3 0  9998
2 50466  98.4992 288.0627 0004638  31.2562 328.8902 14.41381597239095
SNUGLITE 2
1 52899U 22065F   26195.36276375  .00000437  00000-0  91902-4 0  9999
2 52899  98.2232 340.1503 0006275 303.7427  56.3177 14.64393473214979
UmKA 1 (RS40S)
1 57172U 23091G   26195.85697068  .00003328  00000-0  15246-3 0  9996
2 57172  97.5038 254.4508 0013113  30.6450 329.5549 15.21118981168213
CubeBel-2 (EU11S)
1 57175U 23091K   26195.85771060  .00007559  00000-0  26411-3 0  9990
2 57175  97.5039 259.3323 0009603  27.6872 332.4877 15.29818675168536
